SCP
0 0 0 0 0 0 0 0 0 0 0 0 0 0 0 0 0 0 0 0 0 0 0 0 0 0 0 0 0 0 0 0 0 0 0 0 0 0 0 0 0 0 0 0
0 0 0 0 0 0 0 0 0 0 0 0 0 0 0 0 0 0 0 0 0 0 0 0 0 0 0 0 0 0 0 0 0 0 0 0 0 0 0 0 0 0 0 0
0 0 0 0 0 0 0 0 0 0 0 0 0 0 0 0 0 0 0 0 0 0 0 0 0 0 0 0 0 0 0 0 0 0 0 0 0 0 0 0 0 0 0 0
0 0 0 0 0 0 0 0 0 0 0 0 0 0 0 0 0 0 0 0 0 0 0 0 0 0 0 0 0 0 0 0 0 0 0 0 0 0 0 0 0 0 0 0
0 0 0 0 0 0 0 0 0 0 0 0 0 0 0 0 0 0 0 0 0 0 0 0 0 0 0 0 0 0 0 0 0 0 0 0 0 0 0 0 0 0 0 0
0 0 0 0 0 0 0 0 0 0 0 0 0 0 0 0 0 0 0 0 0 0 0 0 0 0 0 0 0 0 0 0 0 0 0 0 0 0 0 0 0 0 0 0
0 0 0 0 0 0 0 0 0 0 0 0 0 0 0 0 0 0 0 0 0 0 0 0 0 0 0 0 0 0 0 0 0 0 0 0 0 0 0 0 0 0 0 0
0 0 0 0 0 0 0 0 0 0 0 0 0 0 0 0 0 0 0 0 0 0 0 0 0 0 0 0 0 0 0 0 0 0 0 0 0 0 0 0 0 0 0 0
0 0 0 0 0 0 0 0 0 0 0 0 0 0 0 0 0 0 0 0 0 0 0 0 0 0 0 0 0 0 0 0 0 0 0 0 0 0 0 0 0 0 0 0
0 0 0 0 0 0 0 0 0 0 0 0 0 0 0 0 0 0 0 0 0 0 0 0 0 0 0 0 0 0 0 0 0 0 0 0 0 0 0 0 0 0 0 0
0 0 0 0 0 0 0 0 0 0 0 0 0 0 0 0 0 0 0 0 0 0 0 0 0 0 0 0 0 0 0 0 0 0 0 0 0 0 0 0 0 0 0 0
0 0 0 0 0 0 0 0 0 0 0 0 0 0 0 0 0 0 0 0 0 0 0 0 0 0 0 0 0 0 0 0 0 0 0 0 0 0 0 0 0 0 0 0
0 0 0 0 0 0 0 0 0 0 0 0 0 0 0 0 0 0 0 0 0 0 0 0 0 0 0 0 0 0 0 0 0 0 0 0 0 0 0 0 0 0 0 0
0 0 0 0 0 0 0 0 0 0 0 0 0 0 0 0 0 0 0 0 0 0 0 0 0 0 0 0 0 0 0 0 0 0 0 0 0 0 0 0 0 0 0 0
0 0 0 0 0 0 0 0 0 0 0 0 0 0 0 0 0 0 0 0 0 0 0 0 0 0 0 0 0 0 0 0 0 0 0 0 0 0 0 0 0 0 0 0
0 0 0 0 0 0 0 0 0 0 0 0 0 0 0 0 0 0 0 0 0 0 0 0 0 0 0 0 0 0 0 0 0 0 0 0 0 0 0 0 0 0 0 0
0 0 0 0 0 0 0 0 0 0 0 0 0 0 0 0 0 0 0 0 0 0 0 0 0 0 0 0 0 0 0 0 0 0 0 0 0 0 0 0 0 0 0 0
0 0 0 0 0 0 0 0 0 0 0 0 0 0 0 0 0 0 0 0 0 0 0 0 0 0 0 0 0 0 0 0 0 0 0 0 0 0 0 0 0 0 0 0
0 0 0 0 0 0 0 0 0 0 0 0 0 0 0 0 0 0 0 0 0 0 0 0 0 0 0 0 0 0 0 0 0 0 0 0 0 0 0 0 0 0 0 0
0 0 0 0 0 0 0 0 0 0 0 0 0 0 0 0 0 0 0 0 0 0 0 0 0 0 0 0 0 0 0 0 0 0 0 0 0 0 0 0 0 0 0 0
0 0 0 0 0 0 0 0 0 0 0 0 0 0 0 0 0 0 0 0 0 0 0 0 0 0 0 0 0 0 0 0 0 0 0 0 0 0 0 0 0 0 0 0
0 0 0 0 0 0 0 0 0 0 0 0 0 0 0 0 0 0 0 0 0 0 0 0 0 0 0 0 0 0 0 0 0 0 0 0 0 0 0 0 0 0 0 0
-0 -0 -0 -0 0 0 0 0 0 0 0 0 0 0 0 0 0 0 0 0 0 0 0 0 0 0 0 0 0 0 0 0 0 0 0 0 0 0 0 0 0 0 0 0
-0 -0 -0 -0 0 0 0 0 0 0 0 0 0 0 0 0 0 0 0 0 0 0 0 0 0 0 0 0 0 0 0 0 0 0 0 0 0 0 0 0 0 0 0 0
-0 -0 -0 -0 0 0 0 0 0 0 0 0 0 0 0 0 0 0 0 0 0 0 0 0 0 0 0 0 0 0 0 0 0 0 0 0 0 0 0 0 0 0 0 0
-0 -0 -0 -0 0 0 0 0 0 0 0 0 0 0 0 0 0 0 0 0 0 0 0 0 0 0 0 0 0 0 0 0 0 0 0 0 0 0 0 0 0 0 0 0
-0 -0 -0 0 0 0 0 0 0 0 0 0 0 0 0 0 0 0 0 0 0 0 0 0 0 0 0 0 0 0 0 0 0 0 0 0 0 0 0 0 0 0 0 0
Wind_Speed
6 6 6 7 7 8 7 8 7 6 6 7 9 9 7 6 6 5 5 5 6 6 5 5 5 5 5 5 5 5 5 5 6 5 4 3 3 3 3 3 3 3 3 4
2 3 4 5 8 9 8 7 7 5 6 6 5 4 5 6 7 6 5 5 6 5 5 4 5 5 5 5 5 5 5 6 5 4 4 4 4 3 3 3 4 3 4 4
3 4 1 6 10 11 8 7 9 10 9 5 5 7 8 8 7 6 6 5 5 5 5 5 4 4 4 4 3 3 3 4 4 4 4 5 4 3 4 4 3 4 4 4
2 1 5 11 6 9 11 9 9 7 8 11 10 8 6 7 8 7 6 5 4 4 3 3 2 2 3 2 2 2 2 2 3 3 4 4 4 4 5 4 4 4 5 5
3 3 7 10 6 8 9 8 9 10 9 8 6 5 0 4 6 7 6 5 4 4 3 2 2 2 3 3 1 1 1 2 3 3 4 4 4 5 5 4 4 4 4 5
4 3 6 10 8 4 6 5 6 11 11 10 9 5 6 5 6 6 5 5 4 4 4 4 2 3 5 3 2 1 3 3 3 3 3 4 5 5 4 4 5 5 5 5
5 4 9 10 4 5 6 10 5 10 11 13 11 8 7 7 6 5 5 5 5 6 5 3 2 4 5 3 2 3 3 2 2 3 3 4 4 3 3 4 4 4 5 5
6 4 11 7 4 7 9 4 4 8 9 10 7 7 8 9 8 7 6 6 6 7 5 3 3 5 5 3 3 3 2 2 3 4 4 3 3 4 3 3 3 4 4 5
11 11 10 6 9 8 6 5 6 7 7 10 10 9 8 8 8 7 6 6 6 7 6 4 4 4 4 3 3 3 3 4 4 5 4 4 3 4 3 2 2 3 3 4
4 8 7 6 5 4 7 7 7 8 10 11 11 10 10 9 8 7 6 6 6 7 7 4 4 5 4 4 4 4 4 4 4 5 5 5 4 3 2 2 2 2 3 3
5 7 4 5 6 6 5 5 7 7 8 12 13 11 10 9 9 7 6 5 6 7 7 5 4 5 5 4 4 5 4 5 5 5 5 5 4 3 3 2 2 1 2 2
8 8 7 9 10 8 8 8 10 10 8 8 11 12 10 10 8 8 7 6 7 7 7 5 5 5 5 4 4 5 4 4 4 4 4 4 4 4 5 5 8 7 6 5
10 8 8 8 7 9 11 11 10 11 12 10 9 10 11 9 8 8 8 8 8 8 7 6 5 5 5 4 4 5 4 4 3 4 4 4 4 4 5 6 8 9 10 11
8 5 5 7 8 9 10 10 8 7 8 10 10 10 11 9 9 10 9 8 8 8 7 6 5 4 4 4 5 5 4 5 5 3 3 4 4 4 3 4 5 6 7 11
11 10 10 7 5 6 7 8 9 9 9 9 10 12 12 12 11 10 9 9 9 8 6 5 5 3 3 4 5 5 4 3 3 3 3 3 4 4 4 4 4 4 5 7
10 6 5 6 8 8 9 10 12 12 12 10 11 12 11 11 11 10 9 9 9 8 6 5 4 2 2 4 4 4 3 7 6 3 3 4 4 4 4 4 4 5 5 5
4 5 5 6 8 9 12 13 14 13 12 12 13 13 13 13 11 10 8 7 8 7 6 5 3 2 3 4 4 3 3 4 8 5 3 3 3 3 3 3 4 4 4 5
8 9 8 10 11 12 11 10 11 13 13 12 14 14 14 14 13 11 10 8 8 6 4 4 4 3 3 3 3 2 2 2 2 2 3 3 3 3 3 3 4 4 4 4
6 6 6 7 9 10 11 11 12 12 13 15 16 14 13 12 11 11 10 9 9 6 4 4 7 5 3 3 3 2 2 2 2 2 2 4 4 3 3 3 3 4 4 4
6 5 3 3 4 6 8 9 11 12 13 15 14 13 12 11 11 11 9 7 6 5 6 5 5 4 2 1 3 2 2 2 2 2 2 2 2 3 3 3 3 4 4 4
7 5 2 2 2 4 6 10 12 13 13 14 15 14 13 11 11 10 9 6 4 5 6 8 5 3 2 1 2 1 1 1 1 1 2 2 2 2 3 3 3 4 4 4
7 4 3 3 5 5 4 7 10 12 12 11 12 12 12 11 9 8 7 6 6 8 5 4 3 4 3 2 1 0 1 1 1 1 2 2 2 2 3 3 3 4 4 4
5 3 2 3 5 5 5 6 8 10 11 12 12 12 11 9 8 8 6 4 5 9 6 4 6 6 3 2 1 0 1 1 1 2 2 2 2 2 3 4 4 4 4 4
4 2 1 3 5 6 6 5 6 6 8 8 9 10 10 7 4 4 5 10 12 10 5 6 7 6 3 2 1 1 1 2 2 2 2 2 2 2 3 3 4 4 5 6
4 2 1 3 4 4 5 6 7 7 7 6 7 7 7 6 6 5 5 7 11 9 4 5 6 3 2 1 2 2 2 2 2 1 1 2 2 3 3 4 4 5 5 6
4 3 3 4 4 4 5 5 5 5 6 5 4 4 5 5 6 6 5 6 7 8 5 3 2 2 2 2 2 2 2 2 2 1 2 2 3 3 3 4 5 5 5 6
4 2 1 1 2 4 5 5 6 6 6 7 5 5 5 5 6 6 6 5 4 4 3 3 3 3 2 2 2 1 1 1 1 2 2 2 3 3 4 5 5 5 6 7
Wind_Direction
223 228 192 205 209 191 178 182 186 222 208 217 204 197 198 193 182 174 181 187 192 202 216 225 230 229 224 222 216 206 200 210 224 230 230 239 255 267 278 289 290 291 299 307
289 253 216 226 219 206 204 193 201 213 237 230 197 175 177 179 170 172 183 190 196 201 205 214 220 223 222 223 219 204 206 221 230 230 232 240 250 259 274 285 289 293 293 297
265 293 346 264 223 204 206 203 186 207 220 178 174 186 187 185 178 177 181 182 184 190 197 208 214 206 201 212 198 189 215 233 236 233 238 246 251 259 267 271 276 286 286 287
200 67 226 243 234 196 202 216 197 194 188 178 186 191 189 177 170 176 177 172 175 180 187 203 206 190 179 160 154 181 227 255 252 245 250 256 256 259 262 261 264 270 276 279
143 218 272 285 264 185 182 233 205 184 182 179 148 101 350 195 166 169 171 169 171 168 159 149 152 153 126 114 122 132 264 266 259 248 253 262 263 261 259 258 265 264 269 274
136 185 246 254 265 188 122 251 221 176 173 163 137 148 227 200 157 149 146 145 142 131 110 104 106 116 103 89 61 323 273 263 258 251 251 258 261 263 262 255 260 270 276 272
167 212 262 256 261 114 145 235 217 176 169 166 177 190 180 156 144 137 132 131 124 109 95 91 99 100 87 64 11 305 299 301 299 284 268 265 272 271 274 278 281 280 281 284
158 193 253 248 158 179 210 221 171 171 169 165 166 143 141 146 143 137 128 123 121 110 98 77 78 90 80 38 325 333 0 359 334 317 310 314 289 291 290 292 297 295 294 298
185 209 231 215 203 212 178 172 174 164 164 147 144 152 154 153 151 146 140 134 125 119 105 76 62 78 74 4 350 13 21 0 340 338 336 333 321 313 316 316 308 305 305 302
245 262 256 240 224 199 183 182 176 162 156 153 156 158 156 155 153 148 143 140 130 118 107 85 61 59 51 16 23 45 30 5 353 351 346 346 347 344 343 341 335 331 330 320
254 272 298 280 239 211 187 163 152 153 163 163 155 157 159 157 155 149 140 132 125 120 114 103 80 58 38 30 44 49 34 15 4 0 352 349 352 353 353 354 15 7 338 325
235 235 208 236 234 207 183 182 172 161 161 167 163 160 155 154 152 145 138 129 122 118 116 107 86 59 33 28 51 56 37 16 5 360 355 356 355 354 2 10 15 24 25 21
233 241 222 240 234 203 194 189 177 171 166 166 162 155 151 147 146 140 136 134 131 128 121 110 90 62 32 30 51 56 41 19 8 7 6 4 7 10 360 359 17 22 17 14
246 239 243 234 225 207 194 182 165 155 156 155 151 146 143 137 140 141 142 140 132 125 119 112 94 66 31 42 52 46 35 30 27 10 7 6 7 8 11 11 7 2 358 5
253 236 232 233 217 190 169 152 151 157 152 149 150 150 149 146 147 145 140 134 125 120 119 113 97 67 34 52 55 44 31 19 18 12 12 12 10 13 16 16 12 1 359 2
257 252 225 207 196 180 167 168 172 174 165 157 157 155 149 142 138 136 136 135 131 132 131 119 108 90 64 65 58 43 27 32 40 26 15 14 14 17 16 15 13 12 10 1
242 238 219 213 204 194 190 187 183 174 166 160 157 147 140 136 134 135 137 135 133 136 136 129 124 107 82 77 73 53 31 23 32 31 18 15 15 14 13 15 12 7 358 356
238 227 213 204 202 201 198 186 173 166 163 156 148 147 148 150 150 148 144 134 125 121 129 137 130 110 83 78 80 58 42 26 19 14 6 8 8 4 7 9 6 3 348 352
279 260 240 221 208 196 188 180 172 163 153 150 152 154 153 151 148 147 143 139 138 142 164 155 128 110 94 74 84 61 41 27 17 6 1 3 8 3 0 358 353 349 345 347
321 311 279 234 196 178 174 165 156 153 154 151 148 147 148 151 150 147 143 147 163 168 168 156 132 123 121 79 70 62 34 21 7 351 351 355 350 346 343 340 339 337 337 336
343 348 11 82 120 137 149 151 151 152 151 152 152 154 152 150 149 146 143 149 179 167 157 148 143 152 168 150 66 55 22 6 353 337 330 328 329 332 331 330 329 327 327 325
346 1 34 79 102 107 120 134 141 142 143 144 144 144 144 145 146 144 151 160 170 164 151 149 163 184 184 140 112 27 353 342 323 311 307 307 312 317 319 321 319 319 318 315
342 3 52 92 109 107 102 116 132 139 143 146 148 150 149 150 151 149 160 174 163 166 158 172 189 197 186 142 181 247 302 308 297 291 290 292 296 301 305 309 308 309 309 309
327 349 51 107 112 114 119 124 123 127 132 135 142 145 142 138 141 157 153 165 171 169 170 193 204 210 188 161 197 229 260 269 273 276 281 286 291 294 297 301 304 304 304 306
304 287 144 140 141 147 148 136 123 123 124 127 135 141 143 145 148 158 155 163 174 170 178 203 209 208 164 182 209 228 243 250 258 268 266 282 287 292 296 299 299 300 301 301
286 254 216 193 177 162 155 147 144 146 140 138 141 145 143 141 143 147 155 169 178 177 179 195 209 200 180 196 210 223 236 275 316 318 284 285 290 295 296 298 302 301 301 301
280 261 217 176 171 164 160 158 157 161 159 155 155 159 155 152 152 158 162 166 171 174 178 185 187 185 186 194 207 223 237 252 261 268 278 283 284 285 289 297 300 301 303 303